HAZ1181 ZSHC-ZSPD

Flight info

Callsign HAZ1181
Flight time 0h 31m
Altitude 6900
Route DSH W505 SUPAR B221 AND G204 DADAT
Aircraft A359/H-SDE2E3GHIJ3J4J5LM1ORWXY/LB1D1

Departure

Time 2026-05-08 15:17
Airport Hangzhou Xiaoshan International Airport (ZSHC)

Arrival

Time 2026-05-08 15:49
Airport Shanghai Pudong International Airport (ZSPD)
Time Latitude Longitude Altitude Speed Heading
2026-05-08 14:49 30.24186 120.42763 34 ft 0 kts 191°
2026-05-08 15:08 30.24203 120.42762 34 ft 2 kts 160°
2026-05-08 15:08 30.24207 120.42760 34 ft 0 kts 159°
2026-05-08 15:09 30.24211 120.42758 34 ft 2 kts 160°
2026-05-08 15:09 30.24226 120.42753 34 ft 2 kts 165°
2026-05-08 15:09 30.24240 120.42748 34 ft 2 kts 165°
2026-05-08 15:09 30.24255 120.42744 34 ft 2 kts 165°
2026-05-08 15:10 30.24269 120.42741 34 ft 2 kts 190°
2026-05-08 15:10 30.24282 120.42748 34 ft 2 kts 229°
2026-05-08 15:10 30.24286 120.42754 34 ft 1 kts 244°
2026-05-08 15:10 30.24288 120.42758 34 ft 0 kts 242°
2026-05-08 15:13 30.24299 120.42779 34 ft 6 kts 56°
2026-05-08 15:13 30.24363 120.42798 34 ft 12 kts 333°
2026-05-08 15:13 30.24435 120.42745 34 ft 10 kts 310°
2026-05-08 15:14 30.24436 120.42660 34 ft 12 kts 250°
2026-05-08 15:14 30.24377 120.42520 34 ft 25 kts 243°
2026-05-08 15:14 30.24300 120.42346 34 ft 25 kts 243°
2026-05-08 15:14 30.24216 120.42155 34 ft 27 kts 243°
2026-05-08 15:15 30.24125 120.41952 34 ft 28 kts 242°
2026-05-08 15:15 30.24034 120.41745 34 ft 30 kts 243°
2026-05-08 15:15 30.23934 120.41518 34 ft 32 kts 243°
2026-05-08 15:15 30.23829 120.41280 34 ft 28 kts 243°
2026-05-08 15:16 30.23780 120.41170 34 ft 14 kts 242°
2026-05-08 15:16 30.23771 120.41099 34 ft 5 kts 320°
2026-05-08 15:16 30.23817 120.41074 34 ft 11 kts 334°
2026-05-08 15:16 30.23926 120.41071 34 ft 19 kts 49°
2026-05-08 15:17 30.23993 120.41223 34 ft 29 kts 64°
2026-05-08 15:17 30.24225 120.41747 34 ft 114 kts 62°
2026-05-08 15:17 30.24694 120.42802 65 ft 177 kts 64°
2026-05-08 15:17 30.25244 120.44069 843 ft 174 kts 63°
2026-05-08 15:18 30.25782 120.45268 1669 ft 166 kts 65°
2026-05-08 15:18 30.26318 120.46467 2235 ft 178 kts 65°
2026-05-08 15:18 30.26912 120.47807 2852 ft 196 kts 65°
2026-05-08 15:18 30.27551 120.49252 3526 ft 212 kts 65°
2026-05-08 15:19 30.28246 120.50826 4222 ft 229 kts 65°
2026-05-08 15:19 30.28994 120.52516 4927 ft 246 kts 64°
2026-05-08 15:19 30.29793 120.54320 5735 ft 259 kts 64°
2026-05-08 15:19 30.30626 120.56195 6410 ft 263 kts 64°
2026-05-08 15:20 30.31459 120.58070 6779 ft 266 kts 64°
2026-05-08 15:20 30.32087 120.60071 6884 ft 265 kts 84°
2026-05-08 15:20 30.31904 120.62161 6917 ft 265 kts 108°
2026-05-08 15:20 30.30962 120.64004 6906 ft 269 kts 131°
2026-05-08 15:21 30.29438 120.65263 6910 ft 272 kts 150°
2026-05-08 15:21 30.27713 120.66256 6924 ft 274 kts 151°
2026-05-08 15:21 30.26015 120.67233 6913 ft 274 kts 151°
2026-05-08 15:21 30.24307 120.68222 6993 ft 274 kts 151°
2026-05-08 15:22 30.22605 120.69212 7071 ft 275 kts 151°
2026-05-08 15:22 30.20882 120.70217 7117 ft 275 kts 151°
2026-05-08 15:22 30.19284 120.71393 7120 ft 272 kts 136°
2026-05-08 15:22 30.18059 120.73031 7123 ft 270 kts 122°
2026-05-08 15:23 30.17042 120.74888 7122 ft 271 kts 120°
2026-05-08 15:23 30.16069 120.76735 7129 ft 270 kts 120°
2026-05-08 15:23 30.15086 120.78593 7125 ft 270 kts 120°
2026-05-08 15:23 30.14104 120.80434 7128 ft 271 kts 120°
2026-05-08 15:24 30.13169 120.82335 7128 ft 270 kts 115°
2026-05-08 15:24 30.12426 120.84306 7126 ft 269 kts 109°
2026-05-08 15:24 30.11798 120.86334 7124 ft 269 kts 108°
2026-05-08 15:24 30.11176 120.88390 7123 ft 270 kts 108°
2026-05-08 15:25 30.10560 120.90425 7122 ft 270 kts 108°
2026-05-08 15:25 30.09936 120.92481 7123 ft 270 kts 108°
2026-05-08 15:25 30.09359 120.94535 7112 ft 269 kts 100°
2026-05-08 15:25 30.09457 120.96644 7109 ft 267 kts 72°
2026-05-08 15:26 30.10378 120.98521 7127 ft 269 kts 54°
2026-05-08 15:26 30.11506 121.00234 7119 ft 270 kts 54°
2026-05-08 15:26 30.12648 121.01974 7120 ft 270 kts 54°
2026-05-08 15:26 30.13764 121.03682 7120 ft 269 kts 54°
2026-05-08 15:27 30.14895 121.05427 7123 ft 269 kts 54°
2026-05-08 15:27 30.16007 121.07149 7126 ft 270 kts 54°
2026-05-08 15:27 30.17139 121.08903 7124 ft 270 kts 54°
2026-05-08 15:27 30.18249 121.10629 7120 ft 270 kts 54°
2026-05-08 15:28 30.19377 121.12385 7120 ft 269 kts 54°
2026-05-08 15:28 30.20491 121.14120 7122 ft 269 kts 54°
2026-05-08 15:28 30.21600 121.15847 7123 ft 269 kts 54°
2026-05-08 15:28 30.22724 121.17601 7120 ft 270 kts 54°
2026-05-08 15:29 30.23837 121.19337 7115 ft 269 kts 54°
2026-05-08 15:29 30.24951 121.21074 7119 ft 269 kts 54°
2026-05-08 15:29 30.26032 121.22834 7123 ft 269 kts 57°
2026-05-08 15:29 30.27073 121.24658 7119 ft 269 kts 57°
2026-05-08 15:30 30.28093 121.26464 7119 ft 269 kts 57°
2026-05-08 15:30 30.29125 121.28290 7123 ft 269 kts 57°
2026-05-08 15:30 30.30166 121.30132 7120 ft 269 kts 57°
2026-05-08 15:30 30.31195 121.31957 7121 ft 269 kts 57°
2026-05-08 15:31 30.32215 121.33764 7122 ft 269 kts 57°
2026-05-08 15:31 30.33229 121.35560 7118 ft 269 kts 57°
2026-05-08 15:31 30.34255 121.37380 7118 ft 269 kts 57°
2026-05-08 15:31 30.35272 121.39183 7119 ft 268 kts 57°
2026-05-08 15:32 30.36301 121.41009 7117 ft 269 kts 57°
2026-05-08 15:32 30.37324 121.42825 7117 ft 268 kts 57°
2026-05-08 15:32 30.38331 121.44613 7119 ft 269 kts 57°
2026-05-08 15:32 30.39356 121.46432 7117 ft 268 kts 57°
2026-05-08 15:33 30.40381 121.48254 7121 ft 268 kts 57°
2026-05-08 15:33 30.41394 121.50054 7117 ft 268 kts 57°
2026-05-08 15:33 30.42414 121.51868 7116 ft 268 kts 57°
2026-05-08 15:33 30.43434 121.53684 7123 ft 268 kts 57°
2026-05-08 15:34 30.44456 121.55504 7116 ft 269 kts 57°
2026-05-08 15:34 30.45461 121.57295 7114 ft 268 kts 57°
2026-05-08 15:34 30.46475 121.59100 7115 ft 268 kts 57°
2026-05-08 15:34 30.47491 121.60915 7112 ft 268 kts 57°
2026-05-08 15:35 30.48505 121.62724 7112 ft 267 kts 57°
2026-05-08 15:35 30.49522 121.64539 7111 ft 268 kts 57°
2026-05-08 15:35 30.50545 121.66371 7118 ft 268 kts 57°
2026-05-08 15:35 30.51546 121.68172 7118 ft 268 kts 57°
2026-05-08 15:36 30.52554 121.69983 7103 ft 261 kts 57°
2026-05-08 15:36 30.53193 121.71129 7110 ft 251 kts 57°
2026-05-08 15:36 30.54424 121.73332 7109 ft 233 kts 57°
2026-05-08 15:36 30.55459 121.74704 7098 ft 221 kts 36°
2026-05-08 15:37 30.56835 121.75449 7120 ft 220 kts 20°
2026-05-08 15:37 30.58287 121.75990 7117 ft 221 kts 19°
2026-05-08 15:37 30.59761 121.76522 7110 ft 221 kts 19°
2026-05-08 15:37 30.61233 121.77055 7109 ft 221 kts 19°
2026-05-08 15:38 30.62703 121.77591 7114 ft 221 kts 19°
2026-05-08 15:38 30.64174 121.78131 7115 ft 221 kts 19°
2026-05-08 15:38 30.65645 121.78674 7096 ft 219 kts 19°
2026-05-08 15:38 30.67083 121.79203 6865 ft 218 kts 20°
2026-05-08 15:39 30.68534 121.79739 6601 ft 219 kts 20°
2026-05-08 15:39 30.69993 121.80279 6369 ft 217 kts 20°
2026-05-08 15:39 30.71428 121.80811 6135 ft 217 kts 20°
2026-05-08 15:39 30.72856 121.81342 5899 ft 216 kts 21°
2026-05-08 15:40 30.74294 121.81876 5665 ft 215 kts 20°
2026-05-08 15:40 30.75723 121.82408 5432 ft 214 kts 20°
2026-05-08 15:40 30.77150 121.82939 5196 ft 214 kts 20°
2026-05-08 15:40 30.78550 121.83459 4966 ft 213 kts 21°
2026-05-08 15:41 30.79968 121.83985 4750 ft 212 kts 21°
2026-05-08 15:41 30.81375 121.84509 4518 ft 211 kts 21°
2026-05-08 15:41 30.82771 121.85028 4297 ft 210 kts 21°
2026-05-08 15:41 30.84174 121.85551 4103 ft 208 kts 21°
2026-05-08 15:42 30.85540 121.86060 3930 ft 204 kts 21°
2026-05-08 15:42 30.86884 121.86559 3765 ft 201 kts 21°
2026-05-08 15:42 30.88211 121.87053 3600 ft 198 kts 21°
2026-05-08 15:42 30.89533 121.87544 3437 ft 195 kts 21°
2026-05-08 15:43 30.90818 121.88010 3276 ft 193 kts 16°
2026-05-08 15:43 30.92173 121.87960 2995 ft 203 kts 347°
2026-05-08 15:43 30.93475 121.87400 2976 ft 194 kts 342°
2026-05-08 15:43 30.94716 121.86826 2950 ft 184 kts 343°
2026-05-08 15:44 30.95876 121.86320 2936 ft 172 kts 345°
2026-05-08 15:44 30.96987 121.85867 2942 ft 169 kts 346°
2026-05-08 15:44 30.98103 121.85432 2944 ft 168 kts 347°
2026-05-08 15:44 30.99227 121.84984 2738 ft 171 kts 345°
2026-05-08 15:45 31.00346 121.84517 2506 ft 167 kts 345°
2026-05-08 15:45 31.01435 121.84062 2316 ft 163 kts 345°
2026-05-08 15:45 31.02488 121.83623 2101 ft 158 kts 345°
2026-05-08 15:45 31.03501 121.83201 1874 ft 151 kts 345°
2026-05-08 15:46 31.04471 121.82732 1582 ft 150 kts 340°
2026-05-08 15:46 31.05396 121.82250 1381 ft 144 kts 340°
2026-05-08 15:46 31.06326 121.81782 1272 ft 143 kts 341°
2026-05-08 15:46 31.07245 121.81357 1110 ft 143 kts 343°
2026-05-08 15:47 31.08192 121.80990 912 ft 142 kts 346°
2026-05-08 15:47 31.09145 121.80673 683 ft 142 kts 347°
2026-05-08 15:47 31.10081 121.80329 486 ft 141 kts 344°
2026-05-08 15:47 31.11018 121.79984 376 ft 141 kts 343°
2026-05-08 15:48 31.12896 121.79320 66 ft 136 kts 343°
2026-05-08 15:48 31.13683 121.79025 27 ft 89 kts 340°
2026-05-08 15:48 31.14194 121.78825 27 ft 54 kts 343°
2026-05-08 15:49 31.14493 121.78739 27 ft 34 kts
2026-05-08 15:49 31.14698 121.78777 27 ft 28 kts 10°
2026-05-08 15:49 31.14777 121.78812 27 ft 2 kts 24°
2026-05-08 15:49 31.14925 121.78764 27 ft 43 kts 335°
2026-05-08 15:50 31.15137 121.78676 27 ft 28 kts 342°
2026-05-08 15:50 31.15335 121.78601 27 ft 31 kts 342°
2026-05-08 15:50 31.15494 121.78544 27 ft 15 kts 353°
2026-05-08 15:50 31.15547 121.78602 27 ft 11 kts 79°
2026-05-08 15:51 31.15575 121.78737 27 ft 23 kts 75°
2026-05-08 15:51 31.15604 121.78934 27 ft 25 kts 84°
2026-05-08 15:51 31.15648 121.79140 27 ft 25 kts 73°
2026-05-08 15:51 31.15673 121.79310 27 ft 15 kts 120°
2026-05-08 15:52 31.15636 121.79343 27 ft 3 kts 135°
2026-05-08 15:52 31.15621 121.79368 27 ft 1 kts 115°
2026-05-08 15:52 31.15625 121.79384 27 ft 2 kts 66°
2026-05-08 15:52 31.15636 121.79405 27 ft 3 kts 56°
2026-05-08 15:53 31.15642 121.79422 27 ft 2 kts 68°
2026-05-08 15:53 31.15649 121.79443 27 ft 3 kts 71°
2026-05-08 15:53 31.15654 121.79459 27 ft 1 kts 71°
2026-05-08 15:53 31.15654 121.79462 27 ft 0 kts 71°